Location: S�deilles
(46.7500°N, 6.9329°E)
Time: 16:56:31
(UTC+00:00)

NOSS 3-2 (C) - Pass Details

Date: 08 March 2021
Orbit: 783 x 1429 km, 63.4° (Epoch: 11 April)

Event Time Altitude Azimuth Distance (km) Brightness Sun altitude
Rises 20:46:28 0° 239° (WSW) 3,363 6.6 -33.2°
Reaches altitude 10° 20:48:52 10° 245° (WSW) 2,487 5.9 -33.6°
Maximum altitude 20:54:25 49° 320° (NW) 1,195 4.2 -34.4°
Enters shadow 20:55:58 41° 360° (N) 1,373 4.4 -34.6°
Exits shadow 21:02:31 - 38° (NE) 3,459 6.4 -35.5°
Sets 21:03:52 0° 40° (NE) 3,944 6.7 -35.6°
